[[{"header":{"parameterUnit":"m.s-1","parameterCategory":1,"la1":30.2992,"la2":30.254,"lo1":-89.0895,"lo2":-89.0443,"dy":0.0025,"dx":0.0025,"nx":19,"ny":19,"refTime":"2026-04-30T21:00:00:Z","depth":0,"parameterNumber":2,"parameterNumberName":"U-component_of_WINDS"},"data":[0,0,0,-1.1541,-1.1541,-1.1542,-1.1542,-1.1552,-1.1552,0,0,0,0,0,0,0,0,0,0,0,-1.1545,-1.1546,-1.1541,-1.1541,-1.1542,-1.1542,-1.1552,-1.1552,0,0,0,0,0,0,0,0,0,0,0,-1.1545,-1.1546,-1.1546,-1.1541,-1.1542,-1.1542,-1.1552,-1.1548,0,0,0,0,0,0,0,0,0,0,-1.1545,-1.1555,-1.1546,-1.1546,-1.1541,-1.1542,-1.1542,-1.1547,-1.1548,-1.1555,0,-1.1562,0,-1.1557,-1.1553,-1.1553,0,0,0,-1.1537,-1.1554,-1.155,-1.1546,-1.1541,-1.1542,-1.154,-1.1548,-1.1548,-1.1556,-1.1562,-1.1562,-1.1557,-1.1553,-1.1553,-1.1605,-1.1605,0,0,-1.1537,-1.1549,-1.155,-1.1551,-1.1551,-1.154,-1.154,-1.1548,-1.1556,-1.1562,-1.1562,-1.1557,-1.1553,-1.1553,-1.1604,-1.1605,0,0,0,-1.1539,-1.1549,-1.1544,-1.155,-1.155,-1.154,-1.154,-1.1556,-1.1553,-1.1562,-1.1558,-1.1553,-1.1554,-1.1604,-1.1604,-1.1637,0,0,0,-1.1539,-1.155,-1.1544,-1.1551,-1.155,-1.1553,-1.1548,-1.1553,-1.1553,-1.1558,-1.1553,-1.1554,-1.1603,-1.1604,-1.1635,-1.165,0,0,0,-1.1544,-1.155,-1.1552,-1.1552,-1.1553,-1.1552,-1.155,-1.1552,-1.155,-1.1553,-1.1554,-1.1603,-1.1604,-1.1633,-1.1648,-1.1668,0,0,0,-1.1552,-1.1581,-1.1553,-1.1584,-1.1553,-1.1572,-1.155,-1.1564,-1.157,-1.1553,-1.1603,-1.1604,-1.1633,-1.1646,-1.1666,-1.1687,-1.1697,0,0,-1.1596,-1.1587,-1.1604,-1.1579,-1.1606,-1.1571,-1.1603,-1.1598,-1.1588,-1.1599,-1.1601,-1.1635,-1.1647,-1.1667,-1.1746,-1.1754,0,0,0,-1.1622,-1.1635,-1.1639,-1.1645,-1.1642,-1.164,-1.1628,-1.1626,-1.1636,-1.1596,-1.1647,-1.1654,-1.1665,-1.1675,-1.1682,-1.1691,-1.1609,-1.1609,-1.1609,-1.1701,-1.1686,-1.1713,-1.1698,-1.1704,-1.1691,-1.1695,-1.169,-1.1673,-1.1685,-1.1689,-1.1739,-1.175,-1.1755,-1.1765,-1.1698,-1.1698,-1.1698,-1.1698,-1.1765,-1.178,-1.1756,-1.1774,-1.1757,-1.1772,-1.176,-1.1747,-1.1759,-1.1735,-1.1744,-1.172,-1.1764,-1.1772,-1.1701,-1.17,-1.17,-1.17,-1.17,-1.1816,-1.1821,-1.1817,-1.1824,-1.1831,-1.1814,-1.1826,-1.181,-1.1795,-1.1804,-1.1806,-1.1806,-1.1804,-1.1806,-1.1806,-1.1806,-1.1806,-1.1806,-1.1807,-1.1871,-1.1866,-1.1878,-1.1875,-1.1877,-1.1877,-1.1863,-1.1864,-1.1862,-1.1849,-1.1849,-1.1831,-1.1771,-1.1757,-1.1809,-1.1809,-1.1808,-1.1808,-1.1808,-1.1943,-1.1924,-1.1942,-1.1944,-1.1939,-1.1947,-1.1926,-1.1929,-1.1928,-1.1934,-1.1913,-1.1872,-1.1862,-1.1856,-1.1845,-1.1916,-1.1916,-1.1916,-1.1916,-1.1987,-1.198,-1.1995,-1.1998,-1.1999,-1.1982,-1.2003,-1.1992,-1.1978,-1.1976,-1.1963,-1.1946,-1.1941,-1.1934,-1.1927,-1.1916,-1.2004,-1.2004,-1.2004,-1.203,-1.2022,-1.2044,-1.2029,-1.2024,-1.202,-1.204,-1.2045,-1.2025,-1.2008,-1.1975,-1.1971,-1.1943,-1.1934,-1.1918,-1.1907,-1.1886,0,0]},{"header":{"parameterUnit":"m.s-1","parameterCategory":1,"la1":30.2992,"la2":30.254,"lo1":-89.0895,"lo2":-89.0443,"dy":0.0025,"dx":0.0025,"nx":19,"ny":19,"refTime":"2026-04-30T21:00:00:Z","depth":0,"parameterNumber":3,"parameterNumberName":"V-component_of_WINDS"},"data":[0,0,0,-8.3082,-8.3085,-8.3205,-8.3206,-8.3374,-8.3376,0,0,0,0,0,0,0,0,0,0,0,-8.3057,-8.3059,-8.3082,-8.3085,-8.3205,-8.3206,-8.3374,-8.3376,0,0,0,0,0,0,0,0,0,0,0,-8.3056,-8.3058,-8.306,-8.3086,-8.3205,-8.3206,-8.3373,-8.3277,0,0,0,0,0,0,0,0,0,0,-8.3157,-8.3145,-8.3058,-8.306,-8.3086,-8.3205,-8.3206,-8.3272,-8.3283,-8.3326,0,-8.337,0,-8.3376,-8.3388,-8.3389,0,0,0,-8.3076,-8.3136,-8.3159,-8.3061,-8.3088,-8.3205,-8.3149,-8.3278,-8.329,-8.3341,-8.3372,-8.3378,-8.3379,-8.3389,-8.339,-8.3679,-8.3681,0,0,-8.3069,-8.3084,-8.3151,-8.3168,-8.3153,-8.3145,-8.3152,-8.3285,-8.3319,-8.3373,-8.3382,-8.3382,-8.3391,-8.3392,-8.3678,-8.368,0,0,0,-8.3056,-8.308,-8.3099,-8.3162,-8.3183,-8.3148,-8.3157,-8.3313,-8.3318,-8.3383,-8.3384,-8.3392,-8.3394,-8.3676,-8.3678,-8.3783,0,0,0,-8.3052,-8.3072,-8.3097,-8.3107,-8.3181,-8.325,-8.3183,-8.3309,-8.3324,-8.3383,-8.3392,-8.3396,-8.3674,-8.3677,-8.3776,-8.3829,0,0,0,-8.3045,-8.3071,-8.3093,-8.3107,-8.316,-8.3247,-8.326,-8.3312,-8.3325,-8.3389,-8.3396,-8.3672,-8.3677,-8.3769,-8.3819,-8.3912,0,0,0,-8.3042,-8.318,-8.3095,-8.3249,-8.3159,-8.3312,-8.3259,-8.3371,-8.3439,-8.3393,-8.3674,-8.3678,-8.3767,-8.3812,-8.3905,-8.3993,-8.4031,0,0,-8.3225,-8.3203,-8.3293,-8.322,-8.3392,-8.3292,-8.3479,-8.3525,-8.3515,-8.3625,-8.3632,-8.3778,-8.3818,-8.391,-8.4237,-8.4268,0,0,0,-8.3356,-8.3421,-8.3463,-8.3531,-8.3572,-8.3612,-8.3629,-8.3646,-8.3739,-8.3576,-8.3835,-8.3859,-8.3912,-8.3954,-8.3979,-8.4025,-8.3698,-8.3697,-8.3697,-8.3634,-8.3619,-8.3768,-8.3768,-8.3834,-8.3852,-8.3903,-8.3929,-8.3891,-8.3953,-8.3985,-8.4186,-8.4235,-8.4255,-8.4302,-8.403,-8.403,-8.403,-8.4031,-8.3902,-8.3992,-8.3943,-8.407,-8.4052,-8.4157,-8.418,-8.4151,-8.4245,-8.4159,-8.4206,-8.4115,-8.4289,-8.4329,-8.4038,-8.4037,-8.4036,-8.4035,-8.4035,-8.4083,-8.4124,-8.4146,-8.4244,-8.4321,-8.4315,-8.441,-8.4389,-8.4369,-8.4415,-8.4448,-8.4446,-8.4443,-8.4432,-8.4433,-8.4434,-8.4434,-8.4435,-8.4435,-8.4263,-8.4285,-8.4369,-8.4428,-8.447,-8.4522,-8.4543,-8.4583,-8.4622,-8.4599,-8.4599,-8.4556,-8.4309,-8.4248,-8.4446,-8.4444,-8.4443,-8.4442,-8.4441,-8.4542,-8.4477,-8.4607,-8.465,-8.4718,-8.4797,-8.477,-8.4854,-8.4884,-8.4931,-8.4879,-8.4699,-8.4674,-8.4654,-8.4603,-8.4881,-8.4881,-8.4882,-8.4882,-8.4696,-8.4683,-8.4813,-8.4883,-8.4949,-8.494,-8.5087,-8.5105,-8.5113,-8.5131,-8.5087,-8.5018,-8.4998,-8.4985,-8.4957,-8.4909,-8.526,-8.526,-8.526,-8.4867,-8.486,-8.499,-8.5001,-8.5054,-8.5099,-8.5237,-8.5318,-8.5313,-8.5275,-8.5144,-8.5128,-8.5016,-8.4981,-8.494,-8.4897,-8.4809,0,0]}]]